ATLAS 5 CENTAUR DEB, 46847

Orbit data source: Space-Track

ATLAS 5 CENTAUR DEB, 46847 is space debris in HEO originally from a launch on Wed, 17 Oct 2018 UTC launched from the Air Force Eastern Test Range (AFETR). Debris objects in space refer to the collection of defunct objects orbiting the Earth. Examples of debris include non-operational satellites, rocket bodies, and fragments generated from explosions, collisions, or faulty payload assembly.

Loading next visibility...
Identifier
46847, 2018-079DC
Orbit
HEO
Country
Flag of USUS
Related business
Flag of USUnited Launch Alliance/Lockheed Martin (US)
Manufacturer
ULA Decatur
Mission
Spacecraft
Bus & Motor
Unknown
Mass
Unknown
Launch date (UTC)
2018-10-17 (8 years ago)
Launch vehicle
Unknown
Launch site
Air Force Eastern Test Range (AFETR)
Object type
Payload
Rocket body
Debris
Shape & HBR
Unknown shape, 1.1 m
Radar Cross Section
Large (>1 m²)

Expand to show TLE details & history
Last TLE update: 2 days ago

TLE from 2 days ago
0 ATLAS 5 CENTAUR DEB
1 46847U 18079DC  26234.52901459 -.00000176  00000-0  00000-0 0  9991
2 46847  13.6404  36.4497 4694456 305.8949  18.9460  1.77277742 37606
Epoch: 2026-08-22T12:41Z
TLE epoch observation values (Epoch: 2026-08-22T12:41:46.860Z)
Latitude
-0.00002°
Longitude
-124.77643°
Altitude
11,238.791 km
Speed
5.606 km/s
True Right ascension
02h 26m 01s
True Declination
0° 00' 00"
Sunlit
Object was in daylight at epoch
Visualization orbit readout
Latitude
Unknown
Longitude
Unknown
Altitude
Unknown
Speed
Unknown
Apparent Right ascension
Unknown
Apparent Declination
Unknown
Sunlit
N/A
Visualization observer readout
Local Sidereal Time
16:27:08
Azimuth
Unknown
Elevation
Unknown
Doppler factor
Unknown
Orbital elements
Apogee altitude
36,000.804 km
Perigee altitude
8,923.099 km
Semi-major axis
28,840.089 km
Eccentricity
0.46945
Inclination
13.6404°
RAAN
36.4497°
Arg. of periapsis
305.8949°
True anomaly
53.90302°
Mean anomaly
18.946°
Eccentric anomaly
33.97831°
Mean motion
0.44315 °/min
Orbital period
812.37 mins
BSTAR
0
Loading maneuver chart data...
Computing Atmospheric mass density...

Documentation

Showing up to 5 results
|